Precipitable_Water
0.40 0.41 0.39 0.38 0.36 0.35 0.35 0.36 0.36 0.36 0.38 0.36 0.35 0.36 0.35 0.35 0.33 0.28 0.22 0.24 0.25 0.28 0.36 0.44 0.44 0.46 0.46 0.43 0.46 0.56 0.46 0.41 0.36 0.39 0.56 0.63 0.66 0.82 0.84 0.81 0.87 0.91 0.95 1.01 1.12
0.40 0.40 0.40 0.38 0.36 0.34 0.33 0.35 0.34 0.36 0.37 0.35 0.35 0.35 0.34 0.37 0.33 0.25 0.27 0.24 0.26 0.28 0.31 0.30 0.34 0.41 0.40 0.41 0.39 0.46 0.44 0.42 0.51 0.56 0.61 0.63 0.68 0.77 0.77 0.77 0.81 0.89 0.99 1.04 1.04
0.42 0.40 0.39 0.38 0.36 0.34 0.33 0.32 0.34 0.34 0.35 0.36 0.35 0.34 0.34 0.37 0.30 0.20 0.24 0.23 0.26 0.29 0.34 0.30 0.30 0.35 0.36 0.40 0.37 0.45 0.45 0.50 0.49 0.55 0.66 0.62 0.63 0.72 0.71 0.66 0.75 0.77 0.84 0.88 0.89
0.42 0.41 0.39 0.37 0.36 0.34 0.32 0.31 0.31 0.32 0.33 0.35 0.36 0.34 0.35 0.35 0.21 0.24 0.22 0.21 0.22 0.30 0.30 0.29 0.27 0.24 0.30 0.34 0.39 0.36 0.45 0.51 0.56 0.58 0.60 0.60 0.63 0.59 0.65 0.67 0.76 0.75 0.76 0.77 0.77
0.45 0.43 0.40 0.37 0.35 0.34 0.31 0.29 0.29 0.30 0.31 0.32 0.34 0.34 0.34 0.22 0.20 0.25 0.22 0.22 0.21 0.23 0.26 0.28 0.27 0.24 0.24 0.32 0.36 0.36 0.42 0.51 0.58 0.61 0.68 0.64 0.62 0.61 0.62 0.66 0.69 0.69 0.70 0.69 0.70
0.47 0.44 0.40 0.37 0.35 0.33 0.30 0.26 0.26 0.26 0.28 0.29 0.30 0.33 0.29 0.15 0.27 0.22 0.23 0.20 0.20 0.21 0.24 0.30 0.30 0.30 0.26 0.32 0.32 0.40 0.42 0.48 0.55 0.57 0.61 0.60 0.59 0.60 0.63 0.69 0.65 0.62 0.61 0.63 0.65
0.45 0.45 0.40 0.36 0.35 0.32 0.29 0.26 0.24 0.24 0.27 0.30 0.30 0.32 0.24 0.19 0.20 0.25 0.23 0.22 0.21 0.23 0.25 0.32 0.34 0.30 0.32 0.30 0.40 0.40 0.35 0.44 0.49 0.52 0.53 0.58 0.51 0.55 0.63 0.63 0.60 0.60 0.60 0.58 0.60
0.47 0.43 0.41 0.38 0.35 0.31 0.27 0.24 0.24 0.26 0.28 0.29 0.30 0.31 0.23 0.23 0.24 0.20 0.21 0.22 0.22 0.23 0.27 0.33 0.37 0.33 0.35 0.40 0.37 0.30 0.32 0.30 0.43 0.47 0.51 0.53 0.40 0.51 0.60 0.59 0.57 0.57 0.59 0.60 0.61
0.54 0.50 0.45 0.40 0.36 0.31 0.26 0.25 0.29 0.28 0.29 0.29 0.28 0.27 0.18 0.22 0.15 0.18 0.21 0.21 0.22 0.22 0.27 0.32 0.35 0.31 0.37 0.32 0.29 0.30 0.24 0.29 0.36 0.44 0.45 0.48 0.45 0.50 0.55 0.55 0.56 0.59 0.61 0.62 0.62
0.61 0.54 0.48 0.43 0.37 0.30 0.28 0.32 0.31 0.26 0.25 0.29 0.26 0.17 0.17 0.14 0.16 0.17 0.22 0.20 0.20 0.21 0.23 0.26 0.29 0.28 0.31 0.29 0.21 0.25 0.25 0.34 0.34 0.38 0.39 0.43 0.43 0.50 0.56 0.56 0.55 0.53 0.54 0.56 0.56
0.62 0.57 0.51 0.45 0.39 0.33 0.38 0.33 0.21 0.19 0.21 0.17 0.17 0.15 0.19 0.17 0.17 0.16 0.20 0.18 0.20 0.22 0.18 0.24 0.24 0.22 0.26 0.29 0.28 0.29 0.27 0.31 0.35 0.36 0.37 0.38 0.39 0.42 0.46 0.46 0.44 0.45 0.46 0.47 0.49
0.63 0.58 0.52 0.47 0.38 0.48 0.46 0.37 0.38 0.45 0.25 0.19 0.17 0.17 0.22 0.20 0.13 0.17 0.20 0.17 0.18 0.17 0.23 0.21 0.22 0.26 0.29 0.30 0.32 0.30 0.29 0.33 0.37 0.36 0.37 0.38 0.36 0.40 0.42 0.43 0.44 0.44 0.45 0.47 0.48
0.57 0.60 0.52 0.45 0.44 0.54 0.48 0.39 0.46 0.46 0.24 0.25 0.17 0.16 0.17 0.18 0.14 0.16 0.18 0.21 0.18 0.18 0.20 0.18 0.22 0.27 0.25 0.27 0.26 0.32 0.30 0.33 0.32 0.34 0.38 0.37 0.35 0.35 0.40 0.44 0.45 0.44 0.44 0.46 0.42
0.52 0.56 0.55 0.42 0.41 0.48 0.50 0.50 0.52 0.51 0.19 0.19 0.18 0.16 0.18 0.18 0.13 0.20 0.20 0.21 0.20 0.19 0.18 0.20 0.28 0.25 0.25 0.24 0.28 0.26 0.34 0.38 0.33 0.31 0.27 0.36 0.28 0.36 0.39 0.41 0.43 0.43 0.44 0.42 0.40
0.50 0.53 0.59 0.50 0.39 0.44 0.56 0.54 0.53 0.42 0.13 0.21 0.22 0.21 0.19 0.15 0.17 0.15 0.21 0.22 0.18 0.18 0.19 0.22 0.22 0.19 0.22 0.26 0.29 0.30 0.32 0.32 0.33 0.32 0.34 0.31 0.28 0.31 0.38 0.35 0.38 0.43 0.43 0.41 0.40
0.52 0.54 0.58 0.52 0.45 0.47 0.58 0.56 0.46 0.20 0.12 0.19 0.24 0.17 0.16 0.15 0.15 0.18 0.17 0.22 0.24 0.21 0.19 0.23 0.21 0.19 0.20 0.26 0.30 0.36 0.33 0.32 0.29 0.26 0.22 0.27 0.24 0.23 0.27 0.30 0.32 0.39 0.40 0.40 0.40
0.53 0.53 0.53 0.57 0.42 0.52 0.57 0.45 0.21 0.18 0.21 0.18 0.17 0.17 0.16 0.14 0.13 0.17 0.15 0.16 0.14 0.12 0.14 0.17 0.17 0.23 0.27 0.22 0.27 0.25 0.24 0.19 0.18 0.18 0.18 0.23 0.19 0.21 0.33 0.32 0.30 0.33 0.35 0.36 0.37
0.50 0.50 0.51 0.56 0.57 0.52 0.49 0.30 0.17 0.20 0.16 0.20 0.18 0.18 0.14 0.16 0.14 0.15 0.16 0.14 0.16 0.15 0.15 0.12 0.11 0.17 0.21 0.20 0.19 0.20 0.20 0.17 0.12 0.14 0.15 0.21 0.15 0.19 0.30 0.31 0.30 0.33 0.34 0.35 0.34
0.43 0.50 0.51 0.55 0.59 0.44 0.35 0.21 0.19 0.18 0.17 0.19 0.18 0.16 0.16 0.17 0.15 0.13 0.16 0.15 0.16 0.17 0.15 0.13 0.14 0.20 0.22 0.24 0.23 0.20 0.17 0.25 0.20 0.21 0.17 0.19 0.21 0.26 0.29 0.26 0.28 0.31 0.31 0.32 0.32
0.36 0.40 0.40 0.58 0.58 0.40 0.28 0.23 0.20 0.22 0.23 0.22 0.16 0.17 0.15 0.16 0.14 0.14 0.15 0.19 0.18 0.20 0.24 0.19 0.16 0.18 0.20 0.24 0.23 0.23 0.26 0.18 0.20 0.13 0.10 0.13 0.18 0.15 0.19 0.21 0.25 0.26 0.28 0.30 0.29
0.34 0.31 0.50 0.58 0.54 0.29 0.22 0.24 0.27 0.25 0.25 0.26 0.19 0.20 0.19 0.18 0.16 0.15 0.15 0.17 0.21 0.19 0.23 0.22 0.19 0.16 0.18 0.15 0.15 0.19 0.20 0.20 0.22 0.18 0.13 0.12 0.14 0.23 0.22 0.21 0.22 0.24 0.27 0.27 0.27
0.36 0.25 0.55 0.54 0.30 0.24 0.23 0.28 0.30 0.26 0.25 0.31 0.31 0.23 0.22 0.21 0.17 0.17 0.16 0.18 0.22 0.23 0.17 0.20 0.19 0.14 0.14 0.19 0.20 0.20 0.17 0.21 0.18 0.15 0.16 0.20 0.22 0.15 0.26 0.23 0.25 0.26 0.26 0.26 0.27
0.29 0.31 0.55 0.48 0.24 0.25 0.27 0.27 0.32 0.28 0.23 0.26 0.29 0.26 0.24 0.22 0.19 0.19 0.20 0.24 0.22 0.22 0.19 0.22 0.18 0.14 0.15 0.17 0.18 0.16 0.17 0.18 0.21 0.20 0.13 0.10 0.11 0.16 0.28 0.24 0.25 0.24 0.24 0.24 0.24
0.29 0.22 0.32 0.41 0.36 0.31 0.26 0.23 0.27 0.31 0.29 0.26 0.31 0.32 0.25 0.22 0.24 0.20 0.22 0.27 0.26 0.23 0.25 0.25 0.18 0.16 0.10 0.11 0.14 0.11 0.16 0.17 0.18 0.15 0.10 0.11 0.16 0.14 0.21 0.21 0.23 0.24 0.22 0.22 0.23
0.30 0.24 0.34 0.24 0.25 0.28 0.28 0.26 0.22 0.22 0.27 0.28 0.25 0.28 0.25 0.21 0.22 0.21 0.22 0.28 0.26 0.25 0.25 0.24 0.16 0.19 0.17 0.17 0.16 0.12 0.12 0.15 0.14 0.15 0.11 0.13 0.12 0.16 0.18 0.21 0.23 0.24 0.20 0.20 0.23
0.25 0.25 0.30 0.28 0.32 0.28 0.27 0.24 0.23 0.22 0.24 0.21 0.22 0.21 0.28 0.25 0.24 0.21 0.23 0.26 0.22 0.24 0.24 0.26 0.17 0.19 0.18 0.19 0.16 0.14 0.13 0.13 0.14 0.14 0.13 0.12 0.11 0.16 0.21 0.25 0.24 0.21 0.19 0.19 0.22
0.34 0.34 0.28 0.24 0.26 0.24 0.28 0.26 0.25 0.24 0.24 0.24 0.24 0.23 0.22 0.30 0.35 0.36 0.36 0.32 0.29 0.26 0.21 0.24 0.21 0.20 0.16 0.18 0.14 0.11 0.13 0.13 0.14 0.15 0.13 0.10 0.11 0.14 0.20 0.20 0.20 0.19 0.19 0.19 0.23
Wind_Speed
13 12 12 12 12 12 11 11 10 10 10 10 10 10 11 12 12 12 13 13 15 18 19 22 23 23 23 24 24 21 20 21 17 16 17 17 15 14 13 14 12 12 12 12 11
14 13 13 12 12 12 12 11 10 10 9 9 9 9 10 10 11 13 11 12 13 15 17 19 22 22 24 23 22 24 25 27 17 9 19 18 17 17 15 14 13 13 12 12 11
15 14 14 13 13 13 12 12 11 11 10 9 9 9 9 9 10 9 10 12 13 14 16 17 20 23 25 22 23 25 24 19 17 18 16 17 17 16 14 12 12 13 13 12 11
16 15 15 15 14 14 13 13 12 12 11 10 9 9 9 8 7 8 9 10 12 13 15 17 19 22 24 24 22 20 16 21 21 21 20 16 14 12 13 13 14 13 12 12 11
18 17 17 16 16 15 15 14 14 13 12 11 10 9 9 10 9 8 9 9 11 13 14 16 19 21 23 24 23 23 18 16 21 20 24 22 18 16 14 15 15 14 13 12 11
20 19 18 18 17 17 16 15 15 14 14 13 12 11 11 12 9 9 9 9 10 12 13 15 16 19 20 21 23 22 20 18 17 18 20 21 21 19 17 17 16 14 13 11 10
21 21 20 19 19 18 18 17 17 16 15 14 13 12 12 10 9 9 9 10 10 11 12 13 14 17 18 17 19 21 20 19 18 20 22 20 15 18 19 17 16 15 14 12 11
22 22 22 21 20 20 20 19 18 17 16 15 14 13 13 12 11 10 9 9 10 11 11 12 13 16 18 18 20 22 23 22 22 23 22 19 17 20 20 19 18 16 15 14 12
23 22 23 22 22 21 21 20 19 18 17 15 14 14 13 11 12 10 9 9 10 11 11 12 12 13 15 23 22 23 23 23 20 24 21 21 21 21 20 19 18 18 17 16 15
23 23 23 22 22 22 21 20 18 17 17 16 17 14 15 14 11 11 9 9 9 12 11 13 12 14 17 21 22 23 24 23 19 22 22 19 18 20 20 19 18 17 16 16 15
23 23 22 22 22 21 20 19 18 18 21 18 14 16 11 13 12 13 11 10 11 13 14 17 14 16 20 21 18 21 21 19 17 18 19 19 19 19 20 18 18 18 17 15 15
23 23 22 22 22 21 21 21 18 18 19 24 20 19 15 13 14 14 13 12 13 14 15 15 17 17 18 20 15 21 21 18 15 17 18 19 19 19 20 20 18 18 17 17 16
22 23 23 22 21 20 19 19 20 20 20 20 24 21 18 17 16 16 16 14 15 15 15 15 13 14 17 17 17 18 22 19 18 19 17 18 17 20 21 20 19 18 17 16 16
24 23 22 21 21 20 20 19 19 19 19 21 22 22 21 18 18 16 18 14 14 16 16 14 11 16 16 18 17 16 17 18 17 20 17 23 16 23 23 22 21 19 18 17 15
25 23 22 21 22 21 20 19 19 18 17 19 20 19 22 21 15 20 19 17 17 15 14 11 14 18 19 18 17 13 12 16 17 19 16 19 18 18 21 23 22 21 20 18 17
25 24 22 21 22 23 21 20 19 18 21 19 19 23 24 26 20 19 20 18 17 16 16 11 14 16 18 16 17 14 15 14 14 15 15 19 19 19 22 21 21 21 20 18 17
24 25 24 24 23 21 21 21 20 22 18 20 20 22 26 24 23 22 24 23 18 21 18 14 15 13 14 18 16 18 18 12 12 14 15 15 18 18 13 18 22 21 20 18 16
25 25 26 26 25 23 23 23 24 22 26 18 19 22 25 24 25 25 25 26 25 21 19 18 15 18 19 20 17 22 20 11 13 15 14 10 13 14 13 14 17 19 18 17 15
25 24 25 26 25 25 26 27 24 23 25 22 20 24 24 24 22 26 29 28 29 26 18 21 14 19 20 17 16 21 20 12 9 9 9 12 10 10 13 15 18 19 18 17 15
22 24 26 25 26 27 29 30 27 22 21 23 24 25 25 27 22 25 27 29 29 26 19 17 16 20 18 18 19 17 19 14 13 10 11 12 15 12 17 18 19 19 19 17 15
20 20 21 24 26 29 31 31 29 24 23 24 28 24 24 25 26 28 23 20 30 29 23 20 17 21 20 24 22 18 19 16 14 14 11 10 10 7 18 20 20 20 18 17 16
17 18 19 22 26 28 32 31 27 27 25 25 23 25 25 26 27 26 28 24 28 28 28 24 19 22 25 21 22 24 21 20 14 12 12 9 8 8 15 19 20 19 18 17 16
18 19 18 22 23 27 29 32 32 28 28 25 25 26 25 24 23 28 26 22 25 28 29 24 20 21 22 19 23 23 26 23 20 14 14 12 9 10 14 19 20 19 18 17 17
18 17 21 22 25 25 29 30 32 28 30 28 25 24 26 26 27 24 26 22 24 28 25 27 24 27 23 17 21 29 27 25 24 18 16 16 11 13 17 20 20 20 19 18 17
19 19 17 18 25 26 27 24 32 33 30 29 29 28 27 24 27 26 28 23 26 26 27 27 29 27 25 21 20 25 30 29 28 24 20 17 20 16 19 20 21 20 19 19 18
20 20 20 23 21 25 27 28 27 30 32 32 31 30 27 27 28 26 27 25 26 28 30 28 26 26 26 22 23 23 28 30 29 26 25 19 15 16 19 20 20 21 21 20 19
21 24 21 22 22 25 23 29 27 28 26 32 29 31 30 26 24 23 23 27 23 28 31 29 26 25 25 25 24 26 28 29 28 28 26 24 19 16 20 22 22 22 22 21 20
Wind_Direction
288 287 285 282 280 279 280 281 282 283 284 283 277 274 271 270 264 248 251 247 247 244 238 234 231 230 227 230 230 223 216 225 226 214 194 192 189 193 186 178 179 185 179 188 193
284 284 283 281 278 277 276 275 275 277 281 282 278 275 275 274 260 250 247 252 246 241 234 231 226 223 224 227 226 221 224 215 215 179 185 193 185 184 181 173 171 175 182 183 184
282 280 280 279 276 275 273 270 270 272 275 277 277 275 276 272 260 246 249 250 245 236 236 231 230 224 224 223 222 221 228 210 206 204 177 180 187 177 179 180 182 182 182 185 185
280 278 277 275 274 272 270 268 267 267 268 270 272 274 273 258 265 251 253 252 244 236 233 228 224 220 223 218 215 214 232 215 205 195 194 193 186 186 179 183 187 189 190 189 191
277 277 274 273 271 269 267 266 264 263 263 262 264 270 263 252 258 252 255 252 241 233 232 224 223 220 221 217 215 222 212 198 202 202 200 198 201 196 191 194 194 194 194 196 201
274 273 273 272 269 267 266 263 262 261 259 256 259 264 253 256 250 257 257 250 241 230 227 222 221 221 225 208 214 208 203 203 202 198 195 194 199 206 201 199 198 197 198 205 214
273 270 270 270 268 265 263 261 259 258 256 253 253 254 254 257 249 255 255 246 237 229 222 222 224 213 209 205 199 194 190 196 201 195 200 187 204 198 199 199 200 205 209 215 225
272 269 269 267 266 264 261 259 257 255 251 248 248 249 252 246 249 251 251 236 232 226 223 219 217 223 208 201 197 200 198 200 206 199 208 225 209 211 212 208 209 213 216 221 231
271 270 268 266 264 262 260 256 253 248 242 240 244 242 249 240 239 239 238 234 228 218 214 209 211 209 203 197 200 206 203 203 204 212 208 220 207 211 215 215 216 219 223 228 234
270 269 268 264 263 261 257 250 243 240 238 238 242 243 240 236 227 232 228 227 213 205 203 205 209 208 204 202 205 205 209 196 206 207 213 215 204 206 213 217 218 221 224 228 235
269 269 267 265 263 258 248 238 237 238 233 232 240 238 232 228 228 226 220 214 213 206 205 206 212 210 203 205 210 205 211 200 193 205 203 206 204 208 212 215 219 222 225 230 235
269 268 267 265 262 252 241 240 239 243 244 235 236 235 234 232 224 218 212 209 205 207 205 202 221 210 208 206 227 205 202 187 201 209 218 204 209 211 216 218 221 225 228 230 235
271 267 265 263 254 245 239 239 241 240 242 234 231 230 225 224 223 213 210 214 207 209 206 207 209 194 203 204 214 204 202 200 206 202 214 207 214 216 220 222 226 229 232 234 236
267 266 262 260 246 244 237 242 239 236 241 227 229 230 220 221 225 212 211 210 213 210 202 215 207 205 197 202 204 202 201 196 192 200 214 219 235 222 221 225 227 226 228 230 234
262 261 258 251 246 238 239 241 236 230 241 218 215 218 214 215 207 213 209 212 207 200 202 209 206 201 204 202 199 194 191 197 202 211 212 216 235 235 215 225 225 226 228 230 234
261 256 255 247 241 238 237 237 227 229 237 224 219 218 209 216 216 201 206 213 212 201 210 199 194 197 204 201 197 186 186 196 205 220 230 229 227 230 224 228 225 223 225 228 231
261 254 249 244 237 238 233 225 225 229 229 226 223 211 210 211 211 206 203 204 201 196 195 196 193 197 190 185 195 191 183 193 212 218 234 232 223 232 224 224 222 218 219 221 224
260 255 244 240 237 234 226 222 228 229 226 231 221 213 212 206 213 209 207 206 212 203 194 197 206 198 198 198 198 199 198 204 216 220 231 205 237 237 222 225 212 209 210 212 216
259 249 243 237 231 225 222 224 227 232 223 223 216 212 213 211 216 211 212 212 208 207 205 208 207 196 196 200 202 201 208 232 236 237 234 221 232 243 219 212 202 202 204 209 214
255 250 243 233 227 224 224 227 226 230 234 224 217 215 214 211 215 210 210 215 209 211 209 206 194 199 200 209 211 217 206 218 223 226 234 237 224 237 210 204 200 199 202 205 207
253 244 235 230 223 222 225 228 230 230 232 228 224 221 223 215 215 211 214 215 209 207 210 214 209 206 202 213 207 209 214 219 230 235 244 234 240 260 206 202 197 198 202 204 204
250 241 234 226 223 226 226 227 231 231 228 230 231 227 224 218 215 217 221 211 213 206 210 211 218 206 212 215 217 215 218 212 219 230 235 248 246 230 202 199 198 199 202 203 204
248 244 237 226 229 228 228 230 232 229 228 225 227 226 224 221 219 222 217 218 210 206 208 204 211 202 203 219 222 223 215 220 220 226 231 230 237 219 199 196 199 200 201 202 202
248 245 236 232 233 234 228 230 228 227 232 228 228 225 221 222 220 219 217 215 210 212 213 208 219 214 215 225 219 216 219 219 220 227 229 227 217 212 203 198 199 201 201 200 202
243 242 240 235 234 234 234 230 228 227 226 226 227 226 221 221 221 222 217 216 215 214 214 214 223 219 226 234 219 217 217 216 219 223 226 229 232 211 208 202 201 201 200 201 204
245 242 242 242 242 232 232 232 230 227 225 224 227 224 223 225 221 221 219 216 214 213 214 214 224 223 225 228 228 222 218 219 220 223 230 231 232 213 207 204 203 203 203 205 207
245 240 241 239 240 236 232 230 230 228 227 226 226 225 224 225 223 226 227 219 222 214 213 213 218 220 222 223 224 228 221 218 222 223 225 226 224 215 208 210 208 208 208 209 210